• In Deutschland
  • Länderverzeichnis
  • Für 7 Tage
  • Wassertemperatur
  • Satellitenkarten
  • Wetterkarte
  • Widgets
  • user-avatar
    Anmelden

    Stündliche Wetter Lubango

    Heute, 24 April, Dienstag

    Zeit Temperatur Niederschläge Wind Luftdruck Luftfeuchtigkeit
    00:00 +15°C° 0 mm 1 m/S 609 mmHg 63%
    01:00 +15°C° 0 mm 1 m/S 609 mmHg 64%
    02:00 +15°C° 0 mm 1 m/S 609 mmHg 64%
    03:00 +14°C° 0 mm 1 m/S 609 mmHg 63%
    04:00 +14°C° 0 mm 1 m/S 609 mmHg 63%
    05:00 +14°C° 0 mm 2 m/S 609 mmHg 63%
    06:00 +15°C° 0 mm 2 m/S 609 mmHg 63%
    07:00 +16°C° 0 mm 2 m/S 610 mmHg 64%
    08:00 +18°C° 0 mm 2 m/S 611 mmHg 55%
    09:00 +21°C° 0 mm 2 m/S 612 mmHg 46%
    10:00 +24°C° 0 mm 3 m/S 613 mmHg 38%
    11:00 +25°C° 0 mm 3 m/S 613 mmHg 35%
    12:00 +26°C° 0 mm 2 m/S 613 mmHg 33%
    13:00 +27°C° 0 mm 2 m/S 612 mmHg 31%
    14:00 +26°C° 0 mm 2 m/S 612 mmHg 32%
    15:00 +26°C° 0 mm 2 m/S 612 mmHg 34%
    16:00 +26°C° 0 mm 2 m/S 611 mmHg 35%
    17:00 +23°C° 0 mm 2 m/S 611 mmHg 41%
    18:00 +21°C° 0 mm 1 m/S 610 mmHg 47%
    19:00 +19°C° 0 mm 1 m/S 609 mmHg 52%
    20:00 +18°C° 0 mm 1 m/S 609 mmHg 53%
    21:00 +16°C° 0 mm 1 m/S 610 mmHg 54%
    22:00 +15°C° 0 mm 1 m/S 610 mmHg 55%
    23:00 +15°C° 0 mm 1 m/S 610 mmHg 54%

    Morgen, 25 April, Mittwoch

    Zeit Temperatur Niederschläge Wind Luftdruck Luftfeuchtigkeit
    00:00 +15°C° 0 mm 1 m/S 609 mmHg 53%
    01:00 +14°C° 0 mm 1 m/S 609 mmHg 52%
    02:00 +14°C° 0 mm 1 m/S 609 mmHg 51%
    03:00 +14°C° 0 mm 1 m/S 609 mmHg 51%
    04:00 +14°C° 0 mm 1 m/S 608 mmHg 50%
    05:00 +14°C° 0 mm 1 m/S 608 mmHg 51%
    06:00 +14°C° 0 mm 1 m/S 609 mmHg 52%
    07:00 +14°C° 0 mm 1 m/S 609 mmHg 53%
    08:00 +17°C° 0 mm 2 m/S 610 mmHg 47%
    09:00 +20°C° 0 mm 2 m/S 612 mmHg 41%
    10:00 +24°C° 0 mm 2 m/S 613 mmHg 34%
    11:00 +25°C° 0 mm 2 m/S 613 mmHg 33%
    12:00 +26°C° 0 mm 2 m/S 613 mmHg 32%
    13:00 +27°C° 0 mm 2 m/S 612 mmHg 31%
    14:00 +26°C° 0 mm 2 m/S 612 mmHg 34%
    15:00 +26°C° 0 mm 1 m/S 611 mmHg 36%
    16:00 +25°C° 0 mm 1 m/S 611 mmHg 39%
    17:00 +23°C° 0 mm 1 m/S 610 mmHg 45%
    18:00 +20°C° 0 mm 1 m/S 609 mmHg 52%
    19:00 +18°C° 0 mm 1 m/S 609 mmHg 58%
    20:00 +16°C° 0 mm 1 m/S 609 mmHg 60%
    21:00 +16°C° 0 mm 1 m/S 609 mmHg 61%
    22:00 +15°C° 0 mm 1 m/S 609 mmHg 63%
    23:00 +15°C° 0 mm 1 m/S 609 mmHg 63%

    übermorgen, 26 April, Donnerstag

    Zeit Temperatur Niederschläge Wind Luftdruck Luftfeuchtigkeit
    00:00 +15°C° 0 mm 1 m/S 609 mmHg 63%
    01:00 +15°C° 0 mm 1 m/S 609 mmHg 62%
    02:00 +14°C° 0 mm 1 m/S 609 mmHg 62%
    03:00 +14°C° 0 mm 1 m/S 608 mmHg 62%
    04:00 +14°C° 0 mm 1 m/S 608 mmHg 61%
    05:00 +14°C° 0 mm 1 m/S 608 mmHg 62%
    06:00 +15°C° 0 mm 1 m/S 609 mmHg 62%
    07:00 +15°C° 0 mm 1 m/S 609 mmHg 62%
    08:00 +19°C° 0 mm 1 m/S 610 mmHg 54%
    09:00 +21°C° 0 mm 2 m/S 612 mmHg 46%
    10:00 +25°C° 0 mm 2 m/S 613 mmHg 38%
    11:00 +25°C° 0 mm 2 m/S 613 mmHg 36%
    12:00 +26°C° 0 mm 2 m/S 612 mmHg 34%
    13:00 +27°C° 0 mm 1 m/S 612 mmHg 32%
    14:00 +26°C° 0 mm 1 m/S 611 mmHg 36%
    15:00 +25°C° 0 mm 1 m/S 611 mmHg 39%
    16:00 +25°C° 0 mm 1 m/S 610 mmHg 42%
    17:00 +23°C° 0 mm 1 m/S 610 mmHg 47%
    18:00 +21°C° 0 mm 1 m/S 609 mmHg 53%
    19:00 +19°C° 0 mm 1 m/S 609 mmHg 58%
    20:00 +18°C° 0 mm 1 m/S 609 mmHg 61%
    21:00 +16°C° 0 mm 0 m/S 610 mmHg 64%
    22:00 +15°C° 0 mm 0 m/S 610 mmHg 67%
    23:00 +15°C° 0 mm 0 m/S 609 mmHg 68%

    27 April, Freitag

    Zeit Temperatur Niederschläge Wind Luftdruck Luftfeuchtigkeit
    00:00 +14°C° 0 mm 0 m/S 609 mmHg 69%
    01:00 +14°C° 0 mm 0 m/S 609 mmHg 70%
    02:00 +13°C° 0 mm 0 m/S 609 mmHg 70%
    03:00 +13°C° 0 mm 0 m/S 608 mmHg 71%
    04:00 +13°C° 0 mm 0 m/S 608 mmHg 71%
    05:00 +14°C° 0 mm 1 m/S 608 mmHg 70%
    06:00 +15°C° 0 mm 1 m/S 609 mmHg 69%
    07:00 +15°C° 0 mm 1 m/S 609 mmHg 67%
    08:00 +19°C° 0 mm 1 m/S 611 mmHg 59%
    09:00 +22°C° 0 mm 1 m/S 612 mmHg 50%
    10:00 +25°C° 0 mm 1 m/S 613 mmHg 41%
    11:00 +25°C° 0 mm 1 m/S 613 mmHg 41%
    12:00 +25°C° 0 mm 1 m/S 612 mmHg 40%
    13:00 +26°C° 0 mm 1 m/S 612 mmHg 40%
    14:00 +25°C° 0 mm 1 m/S 611 mmHg 42%
    15:00 +24°C° 0 mm 1 m/S 611 mmHg 44%
    16:00 +24°C° 0 mm 1 m/S 610 mmHg 47%
    17:00 +22°C° 0 mm 1 m/S 610 mmHg 49%
    18:00 +21°C° 0 mm 1 m/S 610 mmHg 52%
    19:00 +19°C° 0 mm 1 m/S 610 mmHg 55%
    20:00 +18°C° 0 mm 1 m/S 610 mmHg 57%
    21:00 +16°C° 0 mm 1 m/S 610 mmHg 60%
    22:00 +16°C° 0 mm 1 m/S 610 mmHg 62%
    23:00 +15°C° 0 mm 1 m/S 609 mmHg 63%

    28 April, Samstag

    Zeit Temperatur Niederschläge Wind Luftdruck Luftfeuchtigkeit
    00:00 +15°C° 0 mm 1 m/S 609 mmHg 64%
    01:00 +14°C° 0 mm 1 m/S 609 mmHg 64%
    02:00 +14°C° 0 mm 1 m/S 608 mmHg 64%
    03:00 +14°C° 0 mm 1 m/S 608 mmHg 64%
    04:00 +14°C° 0 mm 1 m/S 608 mmHg 64%
    05:00 +14°C° 0 mm 1 m/S 608 mmHg 64%
    06:00 +14°C° 0 mm 1 m/S 609 mmHg 63%
    07:00 +15°C° 0 mm 1 m/S 609 mmHg 63%
    08:00 +18°C° 0 mm 2 m/S 611 mmHg 54%
    09:00 +21°C° 0 mm 2 m/S 612 mmHg 46%
    10:00 +24°C° 0 mm 2 m/S 613 mmHg 38%
    11:00 +25°C° 0 mm 2 m/S 613 mmHg 37%
    12:00 +26°C° 0 mm 2 m/S 613 mmHg 35%
    13:00 +26°C° 0 mm 2 m/S 612 mmHg 33%
    14:00 +26°C° 0 mm 1 m/S 612 mmHg 36%
    15:00 +25°C° 0 mm 1 m/S 611 mmHg 38%
    16:00 +25°C° 0 mm 1 m/S 611 mmHg 41%
    17:00 +23°C° 0 mm 1 m/S 610 mmHg 45%
    18:00 +21°C° 0 mm 1 m/S 610 mmHg 49%
    19:00 +19°C° 0 mm 1 m/S 610 mmHg 53%
    20:00 +18°C° 0 mm 1 m/S 610 mmHg 56%
    21:00 +16°C° 0 mm 1 m/S 610 mmHg 58%
    22:00 +15°C° 0 mm 1 m/S 610 mmHg 60%
    23:00 +15°C° 0 mm 1 m/S 609 mmHg 61%

    29 April, Sonntag

    Zeit Temperatur Niederschläge Wind Luftdruck Luftfeuchtigkeit
    00:00 +15°C° 0 mm 1 m/S 609 mmHg 62%
    01:00 +14°C° 0 mm 1 m/S 609 mmHg 62%
    02:00 +14°C° 0 mm 1 m/S 609 mmHg 62%
    03:00 +14°C° 0 mm 1 m/S 608 mmHg 61%
    04:00 +14°C° 0 mm 1 m/S 608 mmHg 61%
    05:00 +14°C° 0 mm 1 m/S 609 mmHg 61%
    06:00 +14°C° 0 mm 1 m/S 609 mmHg 61%
    07:00 +15°C° 0 mm 1 m/S 610 mmHg 61%
    08:00 +18°C° 0 mm 1 m/S 611 mmHg 53%
    09:00 +20°C° 0 mm 2 m/S 612 mmHg 45%
    10:00 +24°C° 0 mm 2 m/S 613 mmHg 37%
    11:00 +25°C° 0 mm 2 m/S 613 mmHg 35%
    12:00 +26°C° 0 mm 2 m/S 612 mmHg 33%
    13:00 +26°C° 0 mm 2 m/S 612 mmHg 30%
    14:00 +26°C° 0 mm 2 m/S 612 mmHg 33%
    15:00 +25°C° 0 mm 1 m/S 611 mmHg 35%
    16:00 +25°C° 0 mm 1 m/S 610 mmHg 37%
    17:00 +23°C° 0 mm 1 m/S 610 mmHg 42%
    18:00 +20°C° 0 mm 1 m/S 609 mmHg 47%
    19:00 +18°C° 0 mm 1 m/S 609 mmHg 52%
    20:00 +16°C° 0 mm 1 m/S 609 mmHg 54%
    21:00 +16°C° 0 mm 1 m/S 609 mmHg 55%
    22:00 +15°C° 0 mm 1 m/S 609 mmHg 57%
    23:00 +15°C° 0 mm 1 m/S 609 mmHg 57%
    Mehr zeigen